Location: Capodrise
(41.0500°N, 14.3333°E)
Time: 23:49:21
(UTC+00:00)

Daily predictions for brighter satellites

Satellite Brightness Start Highest point End
(mag) Time Altitude Azimuth Time Altitude Azimuth Time Altitude Azimuth
Cosmos 2098 Rocket 4.2 15:54:52 10° N 16:01:08 67° E 16:08:19 10° SSE
ATLAS 5 CENTAUR R/B 2.8 15:56:20 10° NW 16:02:06 75° WSW 16:08:54 10° SSE
CZ-2C R/B 3.0 15:58:42 10° SSE 16:03:51 80° ENE 16:08:46 10° N
Cosmos 1943 4.5 15:59:03 10° SW 16:04:18 39° WNW 16:09:34 10° N
Cosmos-2242 3.8 16:02:37 10° SSW 16:06:51 55° W 16:11:05 10° N
FengYun 1-2 T 4.3 16:01:21 10° SSE 16:06:55 64° ENE 16:12:26 10° N
SJ 16-02 2.1 16:04:00 10° N 16:07:53 30° ENE 16:11:45 10° SE
NOAA 6 4.1 16:05:27 10° SSE 16:10:28 55° ENE 16:15:29 10° N
CZ-4B R/B 4.2 16:07:09 10° ESE 16:11:30 25° ENE 16:15:47 10° NNE
CORIOLIS 4.3 16:07:22 10° SE 16:12:32 51° ENE 16:17:46 10° N
Cosmos 1842 Rocket 4.3 16:09:19 10° SSE 16:13:15 32° E 16:17:12 10° NNE
Cosmos 1833 Rocket 4.4 16:12:00 10° ESE 16:14:21 13° E 16:16:42 10° ENE
Cosmos 1354 Rocket 4.2 16:09:19 10° NNW 16:14:40 85° WSW 16:19:59 10° SSE
CZ-4B R/B 3.3 16:13:01 10° S 16:17:19 73° WSW 16:21:27 10° NNW
Iridium 2 3.6 16:23:26 10° N 16:27:13 84° E 16:30:58 10° S
Cosmos 1766 Rocket 3.6 16:24:05 10° N 16:28:25 88° W 16:32:47 10° S
USA 305 3.6 16:25:31 10° WSW 16:29:37 48° NW 16:33:32 11° NE
Cosmos 1606 2.6 16:25:58 10° S 16:29:40 68° E 16:33:24 10° NNE
EXPRESS MD2 4.1 16:28:55 10° W 16:30:49 27° SW 16:32:53 10° SSE
ARGOS 4.0 16:27:13 10° ESE 16:31:44 28° ENE 16:36:16 10° N
Okean O Rocket 2.6 16:30:57 10° ESE 16:34:34 25° ENE 16:38:12 10° NNE
Atlas Centaur 2 3.6 16:33:53 10° SW 16:35:57 15° S 16:38:05 10° SSE
USA 276 4.2 16:34:52 10° NW 16:36:53 16° N 16:38:19 12° NNE
Cosmos 1464 Rocket 4.0 16:31:42 10° S 16:38:02 84° E 16:44:27 10° N
COSMO-SKYMED 1 3.2 16:35:18 10° NNE 16:39:17 34° E 16:43:14 10° SSE
Aureole 3 4.5 16:36:06 10° SSW 16:40:58 72° W 16:47:14 10° N
ERBS 2.1 16:42:02 10° SW 16:45:13 89° NW 16:47:12 21° NE
Cosmos 1763 Rocket 4.2 16:41:23 10° SSE 16:45:43 30° E 16:48:40 17° NE
Cosmos 2221 2.5 16:43:26 10° S 16:47:41 89° WNW 16:51:59 10° N
NOSS 2-1 (E) 4.3 16:46:21 10° WSW 16:49:23 33° NW 16:52:18 11° NNE
Meteor 2-19 Rocket 4.4 16:43:39 10° N 16:49:45 76° E 16:55:50 10° SSE
ISS -1.5 16:51:03 10° NW 16:53:21 17° NNW 16:54:50 13° NNE
CZ-2C R/B 2.7 16:50:09 10° NNE 16:55:17 53° E 17:00:19 10° S
deb Chang Zheng 4 3.7 16:51:30 10° SSE 16:55:39 50° ENE 16:59:50 10° N
Cosmos 1933 4.0 16:52:09 10° SSE 16:55:49 33° E 16:57:32 23° NE
deb Kosmos-1763 4.0 16:52:46 10° SSW 16:56:09 73° WNW 16:59:07 13° NNE
Cosmos 1340 Rocket 3.0 16:54:00 10° N 16:57:56 48° ENE 17:01:52 10° SSE
USA 306 4.2 16:57:38 10° W 17:01:28 32° NNW 17:04:01 17° NNE
Cosmos 990 Rocket 4.5 16:57:17 10° N 17:02:05 36° ENE 17:06:22 12° SE
Nadezhda 4 Rocket 4.0 16:56:09 10° N 17:02:29 85° E 17:08:49 10° S
SKYMED 3 4.5 16:59:06 10° NNE 17:03:25 65° E 17:07:43 10° S
SMAP 4.4 16:59:06 10° S 17:03:30 43° W 17:07:57 10° NNW
SL-19 R/B 4.5 16:57:45 10° NNE 17:03:43 74° ESE 17:10:08 10° S
Landsat 5 3.6 17:02:19 18° NNE 17:05:16 48° E 17:09:14 10° S
Cosmos 1092 Rocket 4.0 17:03:12 10° N 17:09:28 57° E 17:15:40 10° SSE
Cosmos 1408 Rocket 3.9 17:05:53 10° NNW 17:10:11 66° W 17:14:30 10° S
H-2A R/B 2.1 17:05:47 10° S 17:11:06 82° WSW 17:16:19 10° NNW
COSMOS 2455 4.1 17:07:39 10° SSE 17:11:24 21° ESE 17:11:24 21° ESE
Cosmos 1743 Rocket 3.4 17:07:52 10° N 17:12:12 66° E 17:16:28 10° SSE
COSMOS 2406 3.9 17:08:59 10° SSE 17:14:03 34° ESE 17:15:10 31° E
Cosmos 1697 Rocket 3.4 17:09:25 10° N 17:14:17 29° NE 17:14:22 29° ENE
Cosmos 1980 Rocket 3.9 17:10:51 10° N 17:12:44 15° NNE 17:12:44 15° NNE
SJ-11-01 4.2 17:11:42 10° SSE 17:16:25 68° ENE 17:21:09 10° N
USA 307 4.4 17:12:52 10° W 17:16:38 29° NNW 17:18:33 20° NNE
Cosmos 2082 Rocket 3.7 17:13:59 10° SSE 17:16:18 18° SE 17:16:18 18° SE
Cosmos 2034 Rocket 4.3 17:13:21 10° SSW 17:19:29 67° W 17:25:37 10° N
Cosmos 44 3.4 17:15:52 10° NNW 17:20:28 44° NE 17:20:57 43° ENE
ATLAS CENTAUR R/B 3.7 17:17:35 10° W 17:20:34 19° NW 17:23:42 10° N
Cosmos 1627 Rocket 4.4 17:18:45 10° N 17:24:55 63° E 17:30:59 10° SSE
Meteor 2-14 Rocket 4.4 17:19:31 10° N 17:25:31 55° ENE 17:31:28 10° SSE
Lacrosse 5 2.5 17:20:43 10° NW 17:25:42 55° SW 17:30:40 10° SSE
SKYMED 2 3.8 17:23:04 10° N 17:27:24 68° WNW 17:31:42 10° SSW
NOSS 3-1 (A) 4.3 17:20:12 10° NNW 17:27:29 49° NE 17:31:39 29° ESE
Cosmos 1428 Rocket 4.3 17:21:50 10° N 17:27:55 68° E 17:34:01 10° SSE
Cosmos 1809 Rocket 4.3 17:24:19 10° N 17:30:27 72° E 17:36:30 10° SSE
Cosmos 1898 Rocket 3.6 17:25:55 10° N 17:31:01 47° ENE 17:31:16 47° ENE
GEOS 3 Rocket 3.6 17:26:58 10° SE 17:32:14 82° SW 17:37:29 10° NW
MOS 1-B Rocket 4.4 17:26:42 10° N 17:32:18 62° WNW 17:38:30 10° SSW
NOSS 3-1 (C) 4.0 17:24:53 10° NNW 17:32:32 76° NE 17:41:25 10° SE
Cosmos 1656 3.5 17:28:05 10° NNW 17:33:38 80° ENE 17:39:14 10° SSE
SL-08 RB Rocket 3.6 17:32:46 10° SSE 17:37:25 76° ENE 17:42:04 10° N
Meteor 2-21 Rocket 4.5 17:31:39 10° N 17:37:37 51° ENE 17:43:29 10° SSE
Meteor 1-20 Rocket 4.3 17:32:18 10° NNW 17:38:07 81° W 17:43:57 10° S
Cosmos 468 Rocket 3.9 17:35:20 10° SSW 17:40:27 87° WNW 17:42:42 35° NNE
Cosmos 2279 Rocket 4.0 17:35:47 10° SSE 17:41:48 54° E 17:43:29 42° NE
Cosmos 1500 Rocket 4.4 17:39:23 10° NNW 17:43:42 50° W 17:47:58 10° SSW
SJ 16-02 3.8 17:42:49 10° NW 17:46:17 23° W 17:49:44 10° SSW
Cosmos 1634 Rocket 4.0 17:41:32 10° S 17:47:50 86° W 17:54:13 10° N
DMSP B5D2-2 3.9 17:48:33 67° E 17:48:41 67° ESE 17:53:52 10° S
CZ-4B R/B 4.2 17:46:29 10° S 17:51:46 46° W 17:56:58 10° NNW
Cosmos 1805 Rocket 3.7 17:49:46 10° NNW 17:54:05 68° W 17:58:22 10° S
CZ-4C R/B 4.0 17:51:23 10° NNW 17:56:09 26° NNE 17:56:09 26° NNE
Cosmos 1833 Rocket 2.6 17:51:50 10° SSW 17:57:27 83° WNW 17:58:46 54° NNE
ATLAS 5 CENTAUR R/B 4.3 17:56:01 10° NNW 17:58:54 17° N 17:58:54 17° N
Cosmos 540 Rocket 3.4 17:57:54 10° SSW 18:02:28 72° SSW 18:02:28 72° SSW
Cosmos 2026 Rocket 4.4 18:04:33 10° NNW 18:10:37 59° W 18:16:33 10° S
Okean O Rocket 3.5 18:06:53 10° SSW 18:10:46 30° W 18:14:42 10° NW
ARGOS 4.5 18:06:46 10° SSW 18:11:48 39° W 18:16:52 10° NNW
ATLAS CENTAUR R/B 3.4 18:10:03 10° WSW 18:18:43 45° NW 18:19:16 44° NNW
USA 229 DEB 4.2 18:47:55 10° NW 18:54:57 65° WSW 18:54:57 65° WSW
USA 229 4.2 18:48:01 10° NW 18:54:58 65° W 18:54:58 65° W
COSMOS 2455 4.2 18:51:26 10° SW 18:54:37 32° SW 18:54:37 32° SW
Cosmos 1697 Rocket 4.3 18:53:07 10° NW 18:56:10 29° WNW 18:56:10 29° WNW
Cosmos 1980 Rocket 4.5 18:53:29 10° NNW 18:54:31 16° NNW 18:54:31 16° NNW
Cosmos 2082 Rocket 4.1 18:56:10 10° SW 18:58:13 22° SW 18:58:13 22° SW
